sat.trackr.live / text

‹ back to catalog

STARLINK-31694

NORAD 60140 · 2024-120F

PAYLOAD ACTIVE UNKNOWN

§ Identity

Operator
Country
US
Launch date
2024-06-27
Launch site
AFETR
Launch vehicle
Mass (kg)
RCS (m²)

Purposes: comms

External: N2YO · Heavens-Above · Gunter

§ Orbital elements

Epoch: 2026-05-24T18:54:36.875520Z

Period
94.11 min
Inclination
53.1606°
Eccentricity
0.0001100
Mean motion
15.30193017 rev/d
Perigee alt
474.5 km
Apogee alt
476.0 km
Semi-major
6,853.4 km
B*
-9.2484e-8
RAAN
326.7078°
Arg perigee
82.8542°
Mean anomaly
277.2584°
Rev number
10,810

§ Raw data

STARLINK-316941 60140U 24120F   26144.78792680 -.00000362  00000+0 -92484-7 0  99902 60140  53.1606 326.7078 0001100  82.8542 277.2584 15.30193017108103

JSON: /api/v1/satellites/60140 · /tle

For live sub-satellite position, see the globe view (requires WebGL).

§ Visibility from observer

Set your observer location to see the next 7 days of passes ≥ 10°. The values pass through the URL so the page stays shareable.

No JS? Fill the form by hand. The geolocation button needs JavaScript.